Regional Weather Roundup
Issued by NWS

Home | Current Version | Previous Version | Text Only | Print | Product List | Glossary Off
Versions: 1 2 3 4 5 6 7 8 9 10 11 12 13 14 15 16 17 18 19 20 21 22 23 24 25 26 27 28 29 30 31 32 33 34 35 36 37 38 39 40 41 42 43 44 45 46 47 48 49 50

000
ASUS43 KBIS 241301
RWRND

NORTH DAKOTA REGIONAL WEATHER ROUNDUP
NATIONAL WEATHER SERVICE BISMARCK ND
800 AM CDT SUN MAY 24 2015

NOTE: "FAIR" INDICATES FEW OR NO CLOUDS BELOW 12,000 FEET WITH NO
SIGNIFICANT WEATHER AND/OR OBSTRUCTIONS TO VISIBILITY.


NDZ001>003-009>011-017-241400-
NORTHWEST NORTH DAKOTA

CITY           SKY/WX    TMP DP  RH WIND       PRES   REMARKS
WILLISTON      MOSUNNY   49  43  80 CALM      30.07F
MINOT          CLOUDY    53  47  79 CALM      30.07S
MINOT AFB      PTSUNNY   54  54 100 N2        30.05F
$$

NDZ018>021-031>035-040>046-241400-
SOUTHWEST NORTH DAKOTA

CITY           SKY/WX    TMP DP  RH WIND       PRES   REMARKS
BISMARCK       CLOUDY    57  53  86 NE9       30.06F
DICKINSON      CLOUDY    50  48  93 N3        30.05S
GARRISON         N/A     55  51  86 CALM      30.07R
HETTINGER ARPT CLOUDY    50  49  96 NE10      30.05S FOG
$$

NDZ004>008-012>016-024-026-027-054-241400-
NORTHEAST NORTH DAKOTA

CITY           SKY/WX    TMP DP  RH WIND       PRES   REMARKS
GRAND FORKS    MOSUNNY   57  48  72 S3        30.08S
GRND FRKS AFB  MOSUNNY   57  48  72 S3        30.08S
DEVILS LAKE    PTSUNNY   57  50  77 CALM      30.08R
$$

NDZ022-023-025-028>030-036>039-047>053-241400-
SOUTHEAST NORTH DAKOTA

CITY           SKY/WX    TMP DP  RH WIND       PRES   REMARKS
FARGO          PTSUNNY   59  51  75 NE6       30.06S
JAMESTOWN      PTSUNNY   58  51  78 NE7       30.06F
$$




USA.gov is the U.S. government's official web portal to all federal, state and local government web resources and services.